Home > Weather > Tempe > Past weeks

Flag for USA Weather for the Past 2 Weeks in Tempe, Arizona, USA

Now
64 °F

Scattered clouds.


Feels Like: 64 °F
Forecast: 61 / 81 °F
Wind: 10 mph from East

Location: Phoenix Sky Harbor International Airport

Current Time: Apr 30, 2016 at 7:05:58 AM

Latest Report: Apr 30, 2016 at 5:51 AM


Visibility: 10 mi

Pressure: 29.69 "Hg

Humidity: 37%

Dew Point: 37 °F

Location of TempeLocation

Historic Weather in Tempe — Graph

°F

Tempe Temperature Yesterday

Maximum temperature yesterday: 81 °F (at 4:51 PM)
Minimum temperature yesterday: 65 °F (at 12:51 AM)
Average temperature yesterday: 72 °F

High & Low Weather Summary for the Past Weeks

 TemperatureHumidityPressure
High96 °F (Apr 21, 3:51 PM)38% (Apr 26, 5:51 AM)30.03 "Hg (Apr 26, 5:51 AM)
Low58 °F (Apr 26, 5:51 AM)5% (Apr 20, 4:51 PM)29.53 "Hg (Apr 15, 2:51 PM)
Average75 °F18%29.78 "Hg
* Reported Apr 15 5:51 AM — Apr 30 5:51 AM, Tempe, Weather by CustomWeather, © 2016

Note: Actual official high and low records may vary slightly from our data, if they occured in-between our weather recording intervals... More about our weather records

Advertising

Tempe Weather History for the Previous 24 Hours

Scroll right to see more
 ConditionsComfort  
Time TempWeatherWind HumidityBarometerVisibility
5:51 AM
Sat, Apr 30
64 °FScattered clouds.10 mph37%29.69 "Hg10 mi
4:51 AM65 °FPassing clouds.7 mph34%29.70 "Hg10 mi
3:51 AM65 °FPassing clouds.6 mph36%29.69 "Hg10 mi
2:51 AM70 °FPassing clouds.5 mph30%29.69 "Hg10 mi
1:51 AM70 °FPassing clouds.3 mph29%29.69 "Hg10 mi
12:51 AM72 °FPassing clouds.7 mph25%29.70 "Hg10 mi
11:51 PM
Fri, Apr 29
72 °FPassing clouds.8 mph24%29.71 "Hg10 mi
10:51 PM72 °FPassing clouds.6 mph25%29.72 "Hg10 mi
9:51 PM74 °FPassing clouds.9 mph24%29.72 "Hg10 mi
8:51 PM75 °FPassing clouds.12 mph23%29.72 "Hg10 mi
7:51 PM76 °FPassing clouds.12 mph24%29.71 "Hg10 mi
6:51 PM78 °FBroken clouds.13 mph22%29.70 "Hg10 mi
5:51 PM80 °FBroken clouds.16 mph20%29.70 "Hg10 mi
4:51 PM81 °FBroken clouds.15 mph20%29.72 "Hg10 mi
3:51 PM80 °FScattered clouds.13 mph20%29.74 "Hg10 mi
2:51 PM80 °FScattered clouds.13 mph20%29.76 "Hg10 mi
1:51 PM77 °FPartly sunny.13 mph24%29.79 "Hg10 mi
12:51 PM76 °FPartly sunny.9 mph26%29.81 "Hg10 mi
11:51 AM74 °FScattered clouds.6 mph27%29.83 "Hg10 mi
10:51 AM71 °FPassing clouds.No wind31%29.85 "Hg10 mi
9:51 AM70 °FPassing clouds.3 mph34%29.85 "Hg10 mi
8:51 AM68 °FPassing clouds.3 mph36%29.84 "Hg10 mi
7:51 AM67 °FBroken clouds.6 mph36%29.84 "Hg10 mi
Weather by CustomWeather, © 2016

See weather overviewHow to use our weather pages